sat.trackr.live / text

‹ back to catalog

STARLINK-31829

NORAD 59770 · 2024-091T

PAYLOAD ACTIVE UNKNOWN

§ Identity

Operator
Country
US
Launch date
2024-05-14
Launch site
AFWTR
Launch vehicle
Mass (kg)
RCS (m²)

Purposes: comms

External: N2YO · Heavens-Above · Gunter

§ Orbital elements

Epoch: 2026-09-21T02:41:31.453440Z

Period
93.85 min
Inclination
53.1607°
Eccentricity
0.0001832
Mean motion
15.34401175 rev/d
Perigee alt
461.4 km
Apogee alt
464.0 km
Semi-major
6,840.8 km
B*
4.1590e-5
RAAN
198.5173°
Arg perigee
80.3688°
Mean anomaly
279.7522°
Rev number
13,293

§ Raw data

STARLINK-318291 59770U 24091T   26264.11216960  .00001029  00000+0  41590-4 0  99942 59770  53.1607 198.5173 0001832  80.3688 279.7522 15.34401175132936

JSON: /api/v1/satellites/59770 · /tle

For live sub-satellite position, see the globe view (requires WebGL).

§ Visibility from observer

Set your observer location to see the next 7 days of passes ≥ 10°. The values pass through the URL so the page stays shareable.

No JS? Fill the form by hand. The geolocation button needs JavaScript.